TimePST,TemperatureF,Dew PointF,Humidity,Sea Level PressureIn,VisibilityMPH,Wind Direction,Wind SpeedMPH,Gust SpeedMPH,PrecipitationIn,Events,Conditions,WindDirDegrees,DateUTC
12:15 AM,30.2,30.2,100,30.43,0.2,Calm,Calm,-,N/A,,Overcast,0,2013-02-02 08:15:00
12:35 AM,30.2,28.4,93,30.44,0.2,Calm,Calm,-,N/A,,Overcast,0,2013-02-02 08:35:00
12:55 AM,30.2,28.4,93,30.44,0.2,Calm,Calm,-,N/A,,Overcast,0,2013-02-02 08:55:00
1:15 AM,30.2,28.4,93,30.45,0.2,SW,3.5,-,N/A,,Overcast,220,2013-02-02 09:15:00
1:35 AM,28.4,26.6,93,30.45,0.2,Calm,Calm,-,N/A,,Overcast,0,2013-02-02 09:35:00
1:55 AM,28.4,28.4,100,30.45,0.2,Calm,Calm,-,N/A,,Overcast,0,2013-02-02 09:55:00
2:15 AM,28.4,28.4,100,30.46,0.2,Calm,Calm,-,N/A,,Overcast,0,2013-02-02 10:15:00
2:35 AM,28.4,26.6,93,30.45,0.2,North,4.6,-,N/A,,Overcast,10,2013-02-02 10:35:00
2:55 AM,28.4,26.6,93,30.46,0.2,NE,5.8,-,N/A,,Overcast,40,2013-02-02 10:55:00
3:15 AM,30.2,28.4,93,30.46,0.2,ENE,8.1,-,N/A,,Overcast,60,2013-02-02 11:15:00
3:35 AM,28.4,26.6,93,30.46,0.2,NE,8.1,-,N/A,,Overcast,40,2013-02-02 11:35:00
3:55 AM,28.4,26.6,93,30.46,0.2,NE,9.2,-,N/A,,Overcast,40,2013-02-02 11:55:00
4:15 AM,28.4,26.6,93,30.46,0.2,ENE,5.8,-,N/A,,Overcast,60,2013-02-02 12:15:00
4:35 AM,28.4,26.6,93,30.46,0.5,East,3.5,-,N/A,,Overcast,100,2013-02-02 12:35:00
4:55 AM,28.4,26.6,93,30.46,0.2,East,3.5,-,N/A,,Overcast,100,2013-02-02 12:55:00
5:15 AM,28.4,26.6,93,30.45,0.2,East,3.5,-,N/A,,Overcast,100,2013-02-02 13:15:00
5:35 AM,28.4,26.6,93,30.45,0.5,East,3.5,-,N/A,,Overcast,100,2013-02-02 13:35:00
5:55 AM,28.4,26.6,93,30.45,0.2,East,4.6,-,N/A,,Overcast,80,2013-02-02 13:55:00
6:15 AM,28.4,26.6,93,30.45,0.2,ENE,5.8,-,N/A,,Overcast,70,2013-02-02 14:15:00
6:35 AM,28.4,28.4,100,30.45,0.2,ENE,6.9,-,N/A,,Overcast,70,2013-02-02 14:35:00
6:55 AM,30.2,28.4,93,30.46,0.5,ENE,5.8,-,N/A,,Overcast,60,2013-02-02 14:55:00
7:15 AM,28.4,26.6,93,30.45,0.2,East,3.5,-,N/A,,Overcast,100,2013-02-02 15:15:00
7:35 AM,28.4,28.4,100,30.46,0.2,East,3.5,-,N/A,,Overcast,100,2013-02-02 15:35:00
7:55 AM,28.4,28.4,100,30.46,0.2,East,3.5,-,N/A,,Overcast,100,2013-02-02 15:55:00
8:15 AM,30.2,28.4,93,30.46,0.2,East,4.6,-,N/A,,Overcast,100,2013-02-02 16:15:00
8:35 AM,30.2,28.4,93,30.46,0.2,East,6.9,-,N/A,,Overcast,80,2013-02-02 16:35:00
8:55 AM,30.2,28.4,93,30.46,0.2,East,6.9,-,N/A,,Overcast,80,2013-02-02 16:55:00
9:15 AM,30.2,28.4,93,30.47,0.2,ENE,6.9,-,N/A,,Overcast,70,2013-02-02 17:15:00
9:35 AM,30.2,30.2,100,30.47,0.2,ENE,6.9,-,N/A,,Overcast,70,2013-02-02 17:35:00
9:55 AM,30.2,30.2,100,30.47,0.2,ENE,6.9,-,N/A,,Overcast,60,2013-02-02 17:55:00
10:15 AM,30.2,30.2,100,30.47,0.2,ENE,8.1,-,N/A,,Overcast,70,2013-02-02 18:15:00
10:35 AM,32.0,30.2,93,30.46,0.2,ENE,8.1,-,N/A,,Overcast,60,2013-02-02 18:35:00
10:55 AM,32.0,30.2,93,30.46,0.2,ENE,8.1,-,N/A,,Overcast,70,2013-02-02 18:55:00
11:15 AM,32.0,30.2,93,30.45,0.2,ENE,8.1,-,N/A,,Overcast,70,2013-02-02 19:15:00
11:35 AM,32.0,30.2,93,30.44,0.2,NE,8.1,-,N/A,,Overcast,50,2013-02-02 19:35:00
11:55 AM,33.8,32.0,93,30.44,0.2,ENE,8.1,-,N/A,,Overcast,60,2013-02-02 19:55:00
12:15 PM,33.8,32.0,93,30.43,0.2,ENE,8.1,-,N/A,,Overcast,70,2013-02-02 20:15:00
12:35 PM,33.8,33.8,100,30.42,0.2,ENE,8.1,-,N/A,,Overcast,60,2013-02-02 20:35:00
12:55 PM,33.8,30.2,87,30.41,0.2,ENE,9.2,-,N/A,,Overcast,60,2013-02-02 20:55:00
1:15 PM,33.8,32.0,93,30.40,0.5,NE,10.4,-,N/A,,Overcast,40,2013-02-02 21:15:00
1:35 PM,33.8,30.2,87,30.39,1.2,NE,9.2,-,N/A,,Overcast,50,2013-02-02 21:35:00
1:55 PM,33.8,32.0,93,30.38,3.0,NE,10.4,-,N/A,,Overcast,50,2013-02-02 21:55:00
2:15 PM,33.8,33.8,100,30.38,5.0,ENE,9.2,-,N/A,,Mostly Cloudy,60,2013-02-02 22:15:00
2:35 PM,33.8,33.8,100,30.38,6.0,NE,9.2,-,N/A,,Partly Cloudy,50,2013-02-02 22:35:00
2:55 PM,33.8,33.8,100,30.38,10.0,NE,9.2,-,N/A,,Clear,50,2013-02-02 22:55:00
3:15 PM,35.6,33.8,93,30.37,10.0,NE,8.1,-,N/A,,Clear,50,2013-02-02 23:15:00
3:35 PM,35.6,33.8,93,30.36,10.0,NE,6.9,-,N/A,,Clear,40,2013-02-02 23:35:00
3:55 PM,35.6,33.8,93,30.36,10.0,NE,4.6,-,N/A,,Clear,50,2013-02-02 23:55:00
4:15 PM,33.8,30.2,87,30.35,10.0,NW,5.8,-,N/A,,Clear,310,2013-02-03 00:15:00
4:35 PM,32.0,30.2,93,30.35,1.2,WNW,3.5,-,N/A,,Mostly Cloudy,300,2013-02-03 00:35:00
4:55 PM,30.2,28.4,93,30.34,0.2,WNW,4.6,-,N/A,,Overcast,300,2013-02-03 00:55:00
5:15 PM,28.4,26.6,93,30.34,0.2,WNW,3.5,-,N/A,,Overcast,290,2013-02-03 01:15:00
5:35 PM,28.4,26.6,93,30.33,0.2,Calm,Calm,-,N/A,,Overcast,0,2013-02-03 01:35:00
5:55 PM,26.6,24.8,93,30.32,0.8,Calm,Calm,-,N/A,,Overcast,0,2013-02-03 01:55:00
6:15 PM,26.6,24.8,93,30.31,0.8,Calm,Calm,-,N/A,,Overcast,0,2013-02-03 02:15:00
6:35 PM,26.6,24.8,93,30.31,0.8,Calm,Calm,-,N/A,,Mostly Cloudy,0,2013-02-03 02:35:00
6:55 PM,26.6,24.8,93,30.30,3.0,Calm,Calm,-,N/A,,Clear,0,2013-02-03 02:55:00
7:15 PM,26.6,24.8,93,30.29,4.0,Calm,Calm,-,N/A,,Clear,0,2013-02-03 03:15:00
7:35 PM,24.8,23.0,93,30.28,8.0,ENE,3.5,-,N/A,,Clear,70,2013-02-03 03:35:00
7:55 PM,26.6,23.0,86,30.27,5.0,East,3.5,-,N/A,,Clear,80,2013-02-03 03:55:00
8:15 PM,26.6,26.6,100,30.27,7.0,ENE,5.8,-,N/A,,Clear,70,2013-02-03 04:15:00
8:35 PM,28.4,26.6,93,30.26,10.0,East,6.9,-,N/A,,Clear,80,2013-02-03 04:35:00
8:55 PM,26.6,24.8,93,30.25,10.0,East,6.9,-,N/A,,Clear,80,2013-02-03 04:55:00
9:15 PM,24.8,21.2,86,30.26,10.0,ENE,4.6,-,N/A,,Clear,60,2013-02-03 05:15:00
9:35 PM,26.6,24.8,93,30.25,10.0,ENE,5.8,-,N/A,,Clear,60,2013-02-03 05:35:00
9:55 PM,24.8,21.2,86,30.26,10.0,Calm,Calm,-,N/A,,Clear,0,2013-02-03 05:55:00
10:15 PM,24.8,23.0,93,30.26,8.0,Calm,Calm,-,N/A,,Clear,0,2013-02-03 06:15:00
10:35 PM,23.0,19.4,86,30.25,1.5,Calm,Calm,-,N/A,,Clear,0,2013-02-03 06:35:00
10:55 PM,23.0,21.2,93,30.25,0.5,Calm,Calm,-,N/A,,Overcast,0,2013-02-03 06:55:00
11:15 PM,24.8,21.2,86,30.24,0.5,Calm,Calm,-,N/A,,Overcast,0,2013-02-03 07:15:00
11:35 PM,24.8,23.0,93,30.25,0.8,Calm,Calm,-,N/A,,Overcast,0,2013-02-03 07:35:00
11:55 PM,24.8,24.8,100,30.23,0.2,East,5.8,-,N/A,,Overcast,80,2013-02-03 07:55:00